Regional Weather Roundup
Issued by NWS

Current Version | Previous Version | Text Only | Print | Product List | Glossary On
Versions: 1 2 3 4 5 6 7 8 9 10 11 12 13 14 15 16 17 18 19 20 21 22 23 24 25 26 27 28 29 30 31 32 33 34 35 36 37 38 39 40 41 42 43 44 45 46 47 48 49 50
467
ASUS44 KJAN 300010
RWRMS

MISSISSIPPI HOURLY WEATHER ROUNDUP
NATIONAL WEATHER SERVICE JACKSON MS
700 PM CDT FRI APR 29 2016

NOTE: "FAIR: INDICATES FEW OR NO CLOUDS BELOW 12,000 FEET WITH NO
SIGNIFICANT WEATHER AND/OR OBSTRUCTIONS TO VISIBILITY.

MSZ001>002-007>008-010>013-018>021-025>028-034>036-300100-
NORTHWEST MISSISSIPPI

CITY           SKY/WX    TMP DP  RH WIND       PRES   REMARKS
BATESVILLE     FAIR      66  63  90 E3        29.87F
CLEVELAND      CLOUDY    68  68 100 CALM      29.84R
GREENWOOD      CLOUDY    69  66  90 E13       29.84F
6HR MIN TEMP:  69; 6HR MAX TEMP:  79; 6HR PCP:  0.35;

GREENVILLE     CLOUDY    71  66  84 NE5       29.82R
6HR MIN TEMP:  70; 6HR MAX TEMP:  75; 6HR PCP:  0.20;

OLIVE BRANCH   MOCLDY    63  63 100 SE12      29.86F
OXFORD         FAIR      63  61  94 SE7       29.89F
TUNICA         CLOUDY    64  63  94 E13       29.85F
WINONA         FAIR      67  66  97 NE6       29.86F
$$

MSZ003>006-009-014>017-022>024-029>033-037>039-300100-
NORTHEAST MISSISSIPPI

CITY           SKY/WX    TMP DP  RH WIND       PRES   REMARKS
COLUMBUS AFB   CLOUDY    64  63  94 E8        29.92F
6HR MIN TEMP:  65; 6HR MAX TEMP:  83; 6HR PCP:  1.73;

CORINTH        FAIR      64  61  88 SE9       29.90F
GOLDN TRIANGLE TSTM      64  63  94 E9        29.90F
TUPELO         CLOUDY    65  61  87 NE9       29.90F
6HR MIN TEMP:  64; 6HR MAX TEMP:  77; 6HR PCP:  1.10;

$$

MSZ040-058-300100-
CENTRAL MISSISSIPPI

CITY           SKY/WX    TMP DP  RH WIND       PRES   REMARKS
JACKSON INTL   MOCLDY    80  70  71 E6        29.83F
6HR MIN TEMP:  80; 6HR MAX TEMP:  84;

JACKSON HAWKNS CLOUDY    82  67  60 E7        29.83F
6HR MIN TEMP:  82; 6HR MAX TEMP:  83;

MADISON        FAIR      79  70  73 CALM      29.83F
MERIDIAN KEY   MOCLDY    82  69  64 SE3       29.88R
6HR MIN TEMP:  81; 6HR MAX TEMP:  86; 6HR PCP: TRACE;

MERIDIAN NAS   CLOUDY    80  68  66 CALM      29.89R
6HR MIN TEMP:  80; 6HR MAX TEMP:  85;

VICKSBURG TVR  CLOUDY    79  72  79 E9        29.78F
6HR MIN TEMP:  78; 6HR MAX TEMP:  83;

VICKSBURG VKS  CLEAR     82  68  61 SE3       29.80S
$$

MSZ059>079-300100-
SOUTH MISSISSIPPI

CITY           SKY/WX    TMP DP  RH WIND       PRES   REMARKS
BROOKHAVEN     FAIR     N/A N/A N/A SE7       29.85S
COLUMBIA       FAIR      79  68  69 SE8       29.89S
HATTIESBURG    CLOUDY    81  64  56 S8        29.87F
6HR MIN TEMP:  81; 6HR MAX TEMP:  89;

MCCOMB         CLOUDY    79  69  71 SE12      29.84S
6HR MIN TEMP:  79; 6HR MAX TEMP:  86;

NATCHEZ        CLOUDY    81  68  65 SE10      29.79S
6HR MIN TEMP:  81; 6HR MAX TEMP:  88;

PINE BELT      CLOUDY    79  64  61 SE10G16   29.88F
6HR MIN TEMP:  79; 6HR MAX TEMP:  86;

$$

MSZ080>082-300100-
COASTAL MISSISSIPPI

CITY           SKY/WX    TMP DP  RH WIND       PRES   REMARKS
BAY ST LOUIS   MOCLDY    77  68  73 S8        29.87F
BILOXI         CLOUDY    77  75  92 SE9       29.88S
6HR MIN TEMP:  77; 6HR MAX TEMP:  82;

PASCAGOULA     CLOUDY    77  72  84 SE8       29.89F
6HR MIN TEMP:  77; 6HR MAX TEMP:  84;

GULFPORT       CLOUDY    77  73  87 SE14      29.87S
6HR MIN TEMP:  77; 6HR MAX TEMP:  82;

$$




USA.gov is the U.S. government's official web portal to all federal, state and local government web resources and services.